Regional Weather Roundup
Issued by NWS Goodland, KS

Home | Current Version | Previous Version | Graphics & Text | Print | Product List | Glossary On
Versions: 1 2 3 4 5 6 7 8 9 10 11 12 13 14 15 16 17 18 19 20 21 22 23 24 25 26 27 28 29 30 31 32 33 34 35 36 37 38 39 40 41 42 43 44 45 46 47 48 49 50
000
ASUS43 KGLD 041208
RWRGLD

GOODLAND FORECAST AREA HOURLY WEATHER ROUNDUP
NATIONAL WEATHER SERVICE GOODLAND KS
600 AM MDT MON MAY 04 2015

...OFFICIAL OBSERVATIONS...

CITY           SKY/WX    TMP DP  RH WIND       PRES   REMARKS
GOODLAND KS    CLOUDY    51  45  79 NE7       30.06R
HILL CITY KS   CLOUDY    57  48  72 CALM      30.02R
IMPERIAL NEB   CLOUDY    51  36  56 SE6       30.07R
MCCOOK NEB     CLOUDY    55  40  56 N6        30.04R
AKRON CO       CLOUDY    48  39  71 NE3       30.09R
BURLINGTON CO  LGT RAIN  49  45  86 NE12      30.07R
LIMON CO       CLOUDY    48  45  89 N6        30.09R
$$

...UNOFFICIAL OBSERVATIONS...

CITY           SKY/WX    TMP DP  RH WIND       PRES   REMARKS
COLBY KS       PTCLDY    54  46  76 NE8       30.05R
GOVE KS          N/A     56  32  40 MISG        N/A
LENORA KS        N/A     54  32  43 MISG        N/A
NORTON KS      CLOUDY    54  41  62 N8        30.02
SHARON SPRINGS   N/A     53  49  86 MISG        N/A
KIT CARSON CO    N/A     50  46  85 MISG        N/A
YUMA CO          N/A     50  39  67 CALM        N/A
$$


USA.gov is the U.S. government's official web portal to all federal, state and local government web resources and services.